Retour au catalogue

STARLINK-5542

ActifCommunicationsVLEO
NORAD 57075·PAYLOAD·🇺🇸 United States

Lancé Jun 22, 2023 depuis Vandenberg Space Force Base

Loading…

Prochains Passages (prochaines 24 heures)

TLE

FraisSource: CelesTrak SupGP

Époque: Sep 14, 2026, 20:40 UTC

1 57075C 23088AD  26257.86159722 -.00011002  00000+0 -39863-3 0  2571
2 57075  43.0029 107.4088 0001664 273.2285 177.5397 15.27573343    18

Suivez STARLINK-5542 en temps réel avec AllMySat

Download on the App Store